Vertical_Velocity
12 11 3 -1 -4 -5 -8 2 7 4 -4 -3 -1 1 7 -0 8 9 4 2 -1 -1 1 1 2 2 2 0 3 3 1 -0 1 0 -0 0 1 1 -0 -1 1 -1 -0
-10 4 7 -2 -5 1 -3 -1 3 3 -0 -1 5 1 -2 -4 -8 -3 -3 -2 -0 1 2 4 2 1 1 1 3 0 1 1 -0 -1 0 0 1 0 1 0 2 2 0
-5 -2 3 3 4 -1 -1 -6 7 5 2 3 1 -6 -4 -1 -6 5 7 9 6 1 2 -1 1 0 -0 -1 2 2 1 -0 1 1 -0 -1 -0 -0 -0 -1 0 3 1
3 -5 -8 -0 -1 3 -1 -5 -1 2 -0 -2 2 5 2 1 5 1 -4 -2 -1 0 1 2 2 2 1 3 1 2 1 -1 -1 1 -1 -0 -0 -1 0 -0 -1 -0 1
15 2 4 5 9 -0 3 -1 -5 -0 -2 -2 4 5 2 -3 0 -0 -0 -3 -0 1 2 3 2 -3 0 -1 4 2 1 1 -1 -1 1 1 1 -0 -0 0 -1 -1 0
6 4 4 4 -1 4 3 -2 -6 -7 -1 -3 5 -0 7 5 -3 1 4 -1 -1 1 -0 -1 1 -1 -2 3 0 1 1 3 1 -0 -0 -0 0 -1 -2 -1 -1 -2 -1
6 3 -8 -3 3 0 5 2 1 -6 -4 -2 3 -2 7 5 1 2 2 1 3 4 5 3 -1 3 0 -1 1 1 2 0 2 1 1 -0 -0 -1 -1 -1 -1 -0 -1
-1 -2 -11 1 1 7 5 2 0 -7 -1 -2 0 3 5 1 2 -3 1 2 0 1 -4 9 -5 -2 -1 1 -4 2 2 3 1 2 -2 1 1 1 1 0 -0 -0 0
-1 -5 -10 -1 -0 4 2 2 1 1 -2 1 -4 2 3 -8 2 5 -1 1 -2 3 -0 -4 -0 10 -1 -0 2 -1 -0 2 3 3 3 -3 -1 1 1 1 1 -0 1
3 -2 -6 -3 -1 10 8 -5 -3 -3 4 -2 1 2 8 -2 2 -2 -1 3 2 1 2 1 0 5 2 8 1 1 3 4 4 5 4 4 -2 -0 -0 -1 1 0 -0
1 -1 5 6 5 9 2 -2 1 0 -3 -4 3 -2 2 1 0 5 -1 5 -0 1 0 1 -0 0 1 -0 4 3 4 3 3 1 1 1 0 2 1 1 2 0 1
-2 -6 3 7 8 3 4 1 -1 3 -2 1 1 4 3 -2 -1 2 -0 9 4 -2 3 -1 -3 1 1 3 3 5 -1 3 -0 2 2 1 -0 1 -1 3 1 -1 1
4 1 4 2 -1 2 2 3 -2 2 -1 1 -0 -2 3 3 -2 3 -1 1 4 -2 0 -1 2 3 1 -2 0 4 4 1 -2 -2 -0 1 0 2 1 3 4 3 3
-3 -2 5 3 2 1 4 7 -0 -0 1 -1 -5 1 4 5 2 4 2 1 1 0 2 4 1 1 -0 0 -0 4 4 3 3 2 1 -0 1 2 0 3 3 0 -2
4 3 4 0 8 5 5 1 -6 1 6 -3 -6 11 3 0 -2 -1 2 -1 -2 1 -0 -4 4 3 2 -0 -1 7 9 4 1 1 1 1 2 2 2 2 1 0 3
-0 -4 -3 1 3 5 -0 3 6 2 -2 -3 3 3 0 -2 -2 0 -1 0 -0 2 2 3 3 -0 1 3 4 4 3 2 3 5 2 0 -2 1 1 -0 4 -3 -1
-4 -3 1 2 4 4 7 6 6 2 2 1 2 -0 -2 -4 -0 2 -1 2 -3 4 14 2 3 -0 3 1 -1 -0 0 2 2 2 2 0 3 3 1 5 -2 -2 1
-0 -1 -0 2 10 2 3 -0 -6 -0 -0 -3 2 1 -3 -2 2 0 1 -2 0 6 8 5 -3 5 -4 1 -1 7 1 5 4 1 2 4 2 4 3 2 -2 0 -3
-1 -0 3 2 3 -1 -6 -8 -1 -2 -2 0 2 -2 -4 -2 1 2 1 1 -5 -1 3 2 1 -0 6 0 -1 -1 2 0 3 4 4 0 5 4 -2 2 2 -2 -0
1 2 1 4 1 -0 -1 -1 1 -1 -4 -1 3 1 2 3 -2 -2 -2 37 -4 21 12 3 1 4 -4 -3 -2 2 1 4 4 -1 0 6 11 -1 -0 2 -1 3 -4
-3 -2 1 -1 -1 2 4 2 -0 2 -2 -2 2 2 2 -2 -0 -3 -2 -2 2 10 3 -7 -1 1 -1 -6 -4 -1 -2 3 1 8 9 -4 -4 2 -1 4 1 -1 2
-5 -1 -2 7 -1 -1 -0 1 6 6 -2 -7 0 0 2 3 1 1 -1 -2 3 12 3 -8 2 4 5 1 -0 -4 0 8 6 3 -1 -2 1 -0 -1 7 0 2 0
-1 -4 -2 0 0 -2 -1 3 -1 5 22 150 -2 -1 1 2 2 2 5 4 7 7 -1 6 2 10 11 7 6 9 15 14 3 3 -0 1 1 2 2 3 2 -0 -3
-0 1 2 -3 -2 0 -1 -2 1 3 -13 3 -5 -2 1 2 3 4 3 3 2 4 5 9 3 7 7 14 18 17 21 6 2 1 2 2 2 2 4 1 -1 1 -4
-0 -1 -1 0 1 -0 -1 1 3 3 -4 -1 2 0 2 2 5 4 2 3 2 2 8 15 10 13 17 22 33 10 5 4 3 4 4 2 3 2 -0 1 -1 -7 -2
-1 -0 -0 -1 -0 -0 -0 -1 -5 -2 1 1 3 3 2 -1 1 -2 -3 -3 -1 2 7 2 4 8 9 8 15 8 9 6 1 3 4 5 4 1 -1 -5 -0 -2 -3
Height
5673 5682 5691 5698 5705 5711 5717 5724 5730 5737 5742 5748 5753 5756 5763 5769 5778 5784 5789 5793 5797 5801 5805 5808 5811 5814 5817 5819 5821 5822 5824 5825 5826 5827 5828 5829 5830 5830 5830 5830 5831 5831 5831
5657 5665 5675 5684 5692 5700 5706 5714 5720 5727 5733 5739 5746 5750 5754 5760 5767 5773 5779 5784 5789 5793 5797 5801 5804 5806 5810 5813 5814 5815 5818 5820 5821 5821 5823 5824 5825 5824 5825 5824 5825 5825 5824
5643 5651 5659 5670 5677 5687 5695 5702 5709 5716 5722 5729 5735 5740 5745 5750 5757 5763 5771 5777 5782 5786 5790 5793 5797 5800 5803 5805 5808 5809 5811 5812 5814 5815 5817 5817 5818 5818 5818 5818 5817 5818 5817
5625 5632 5643 5653 5663 5674 5682 5688 5696 5704 5712 5718 5725 5731 5738 5744 5751 5757 5763 5768 5773 5777 5782 5785 5788 5792 5795 5798 5801 5803 5804 5806 5806 5808 5809 5810 5811 5811 5811 5811 5811 5810 5810
5607 5615 5628 5639 5648 5655 5666 5675 5682 5690 5700 5708 5715 5723 5728 5733 5740 5745 5750 5757 5763 5768 5772 5777 5780 5784 5787 5791 5793 5795 5796 5798 5799 5800 5801 5802 5803 5804 5804 5804 5804 5803 5802
5588 5599 5611 5620 5631 5642 5650 5661 5671 5678 5687 5696 5705 5711 5719 5724 5729 5735 5741 5748 5753 5759 5764 5768 5772 5775 5778 5782 5785 5787 5789 5790 5792 5793 5793 5794 5795 5795 5795 5794 5794 5794 5793
5572 5582 5593 5603 5615 5624 5635 5646 5657 5667 5675 5684 5692 5700 5707 5712 5717 5725 5731 5736 5742 5749 5755 5759 5763 5766 5769 5772 5776 5778 5780 5782 5784 5785 5786 5786 5785 5786 5786 5786 5786 5785 5784
5558 5571 5584 5594 5604 5615 5623 5631 5643 5654 5663 5673 5681 5689 5696 5701 5706 5714 5721 5726 5731 5737 5744 5747 5752 5756 5758 5762 5766 5768 5771 5773 5774 5776 5777 5778 5778 5777 5777 5777 5776 5776 5775
5551 5561 5575 5583 5593 5603 5612 5621 5630 5641 5651 5660 5669 5677 5684 5689 5696 5703 5710 5716 5721 5727 5733 5737 5741 5744 5749 5751 5755 5759 5761 5764 5765 5767 5768 5769 5770 5768 5768 5768 5767 5766 5765
5543 5551 5562 5573 5583 5593 5601 5609 5620 5630 5638 5647 5658 5666 5673 5680 5686 5692 5699 5706 5711 5716 5721 5725 5731 5735 5738 5741 5743 5747 5750 5753 5755 5757 5758 5759 5760 5760 5759 5758 5756 5755 5753
5536 5544 5552 5562 5571 5581 5590 5600 5610 5618 5628 5639 5647 5654 5662 5669 5675 5682 5687 5694 5700 5705 5710 5714 5718 5723 5727 5730 5732 5734 5737 5740 5744 5747 5749 5750 5751 5751 5750 5748 5746 5744 5742
5529 5537 5547 5554 5564 5573 5582 5592 5600 5608 5619 5629 5635 5642 5650 5657 5664 5672 5676 5684 5689 5695 5699 5703 5707 5712 5716 5719 5722 5724 5726 5728 5731 5735 5737 5739 5739 5739 5738 5738 5735 5734 5731
5524 5531 5539 5547 5556 5565 5574 5582 5591 5599 5608 5615 5624 5631 5639 5647 5655 5662 5667 5672 5678 5683 5688 5693 5698 5703 5706 5709 5711 5713 5717 5717 5718 5721 5724 5725 5727 5727 5726 5725 5724 5723 5720
5516 5526 5534 5541 5549 5558 5566 5573 5582 5590 5598 5605 5614 5623 5631 5639 5645 5651 5658 5662 5670 5675 5680 5684 5688 5693 5695 5699 5702 5705 5706 5707 5707 5710 5712 5715 5716 5715 5715 5713 5712 5710 5708
5511 5519 5525 5533 5541 5548 5557 5565 5574 5581 5589 5597 5606 5615 5622 5628 5634 5641 5648 5653 5660 5664 5668 5673 5677 5682 5685 5688 5691 5694 5696 5697 5697 5698 5700 5702 5704 5704 5703 5703 5701 5700 5696
5506 5510 5517 5526 5532 5541 5549 5556 5565 5574 5581 5588 5598 5606 5613 5620 5627 5633 5638 5644 5650 5656 5660 5663 5667 5671 5677 5680 5683 5684 5684 5685 5686 5688 5690 5691 5692 5692 5692 5692 5688 5688 5683
5502 5507 5511 5519 5526 5533 5541 5551 5559 5566 5573 5582 5591 5598 5605 5612 5619 5625 5630 5636 5640 5645 5650 5655 5659 5663 5668 5670 5670 5671 5672 5673 5675 5678 5680 5681 5682 5682 5680 5679 5678 5675 5671
5500 5504 5508 5513 5521 5528 5536 5545 5552 5559 5567 5575 5584 5591 5598 5605 5611 5617 5622 5627 5632 5636 5643 5647 5651 5655 5658 5661 5661 5663 5663 5665 5666 5668 5671 5673 5672 5669 5670 5670 5667 5663 5658
5498 5501 5505 5511 5519 5524 5530 5539 5546 5553 5561 5570 5577 5585 5591 5598 5604 5610 5615 5620 5625 5630 5635 5638 5642 5647 5650 5653 5653 5654 5656 5656 5658 5660 5662 5662 5662 5663 5662 5659 5655 5651 5647
5494 5499 5503 5509 5516 5522 5528 5534 5542 5549 5557 5564 5571 5577 5584 5592 5597 5602 5608 5613 5618 5621 5625 5630 5634 5638 5642 5646 5646 5647 5648 5649 5652 5653 5655 5657 5656 5654 5651 5649 5645 5640 5637
5492 5496 5502 5507 5514 5520 5525 5531 5537 5544 5550 5557 5563 5570 5577 5583 5588 5594 5599 5604 5609 5613 5619 5624 5626 5631 5634 5636 5638 5641 5643 5645 5647 5649 5650 5649 5647 5645 5642 5638 5635 5630 5626
5490 5494 5500 5506 5512 5517 5523 5527 5533 5538 5544 5551 5555 5561 5569 5576 5581 5586 5590 5595 5599 5603 5610 5616 5620 5624 5627 5628 5629 5634 5636 5639 5640 5641 5640 5641 5638 5635 5633 5629 5625 5620 5617
5488 5493 5498 5504 5510 5514 5518 5522 5527 5531 5540 5536 5549 5556 5562 5568 5573 5577 5581 5586 5592 5597 5602 5607 5612 5615 5618 5620 5623 5629 5631 5632 5633 5633 5633 5631 5629 5627 5624 5620 5616 5612 5607
5488 5492 5496 5502 5506 5510 5514 5517 5521 5527 5533 5539 5544 5549 5554 5559 5565 5570 5573 5578 5585 5589 5593 5598 5602 5606 5609 5613 5619 5622 5623 5625 5625 5626 5624 5623 5621 5618 5615 5611 5607 5601 5596
5486 5490 5494 5499 5502 5506 5510 5514 5517 5521 5526 5533 5537 5542 5547 5553 5558 5563 5567 5572 5578 5582 5585 5589 5595 5598 5604 5607 5612 5614 5615 5617 5617 5617 5615 5614 5611 5609 5605 5601 5595 5591 5585
5484 5487 5491 5495 5498 5502 5506 5510 5513 5517 5520 5526 5531 5536 5541 5547 5552 5556 5562 5566 5571 5574 5578 5581 5585 5589 5593 5597 5602 5605 5607 5609 5609 5608 5606 5604 5602 5598 5595 5590 5585 5579 5572